Location: Bruderhein
(53.8035°N, 112.9265°W)
Time: 14:17:54
(UTC+00:00)

RS-15 - Pass Details

Date: 06 April 2023
Orbit: 1885 x 2159 km, 64.8° (Epoch: 01 June)

Event Time Altitude Azimuth Distance (km) Brightness Sun altitude
Rises 08:43:45 0° 320° (NW) 5,622 10.8 -28.0°
Reaches altitude 10° 08:48:08 10° 308° (NW) 4,579 10.1 -27.8°
Maximum altitude 08:56:35 24° 262° (W) 3,487 9.0 -27.3°
Enters shadow 08:57:56 23° 252° (WSW) 3,504 9.0 -27.3°
